Regional Weather Roundup
Issued by NWS New Orleans/Baton Rouge, LA

Home | Current Version | Previous Version | Text Only | Print | Product List | Glossary On
Versions: 1 2 3 4 5 6 7 8 9 10 11 12 13 14 15 16 17 18 19 20 21 22 23 24 25 26 27 28 29 30 31 32 33 34 35 36 37 38 39 40 41 42 43 44 45 46 47 48 49 50
081
ASUS44 KLIX 221801
RWRLIX
NEW ORLEANS REGIONAL WEATHER ROUNDUP
NATIONAL WEATHER SERVICE NEW ORLEANS LA
100 PM CDT TUE APR 22 2014

NOTE: "FAIR" INDICATES FEW OR NO CLOUDS BELOW 12,000 FEET WITH NO
      SIGNIFICANT WEATHER AND/OR OBSTRUCTIONS TO VISIBILITY.
      SKY/WX - SKY CONDITION AND SIGNIFICANT WEATHER.
      TMP - AIR TEMPERATURE.     DP    - DEWPOINT TEMPERATURE.
      RH  - RELATIVE HUMIDITY.   PRES  - PRESSURE.
      HI  - HEAT INDEX.          WCI   - WIND CHILL INDEX.

*  THESE STATIONS ARE NOT NWS OR FAA STATIONS AND ARE NOT UNDER
   NWS QUALITY CONTROL.

LAZ038-040-048-061>063-065>067-069-221900-
SOUTHEAST LOUISIANA

CITY           SKY/WX    TMP DP  RH WIND       PRES   REMARKS
N.O. AUDUBON   NOT AVBL
N.O. INTL ARPT CLOUDY    74  66  76 W9        29.95F
6HR MIN TEMP:  62; 6HR MAX TEMP:  74;

N.O. LAKEFRONT CLOUDY    71  66  84 W9        29.96F
6HR MIN TEMP:  66; 6HR MAX TEMP:  72;

N.O. DOWNTOWN* CLOUDY    72  61  68 SW3       29.96F
6HR MIN TEMP:  64; 6HR MAX TEMP:  73;

SLIDELL        CLOUDY    70  64  81 NW5       29.95F HAZE
6HR MIN TEMP:  57; 6HR MAX TEMP:  72;

BATON ROUGE    CLOUDY    75  63  66 NW7       29.95F
6HR MIN TEMP:  65; 6HR MAX TEMP:  77; 6HR PCP: TRACE;

BOOTHVILLE       N/A     74  63  68 W13       29.97F
6HR MIN TEMP:  65; 6HR MAX TEMP:  74;

BELLE CHASSE   CLOUDY    75  63  64 W10G16    29.95F
BOGALUSA*        N/A     75  64  68 W9G16     29.96S
6HR MIN TEMP:  63; 6HR MAX TEMP:  76;

GALLIANO*      NOT AVBL
NEW ROADS*     NOT AVBL
GONZALES*        N/A     69  67  93 CALM      29.96F
6HR MIN TEMP:  64; 6HR MAX TEMP:  72;

HAMMOND*       NOT AVBL
HOUMA*         PTSUNNY   75  63  64 SW12      29.96F
PORT FOURCHON* CLOUDY    73  64  73 SW14      29.99F

$$

MSZ070-080>082-221900-
SOUTHERN MISSISSIPPI

CITY           SKY/WX    TMP DP  RH WIND       PRES   REMARKS
MCCOMB         CLOUDY    73  63  70 NW10      29.94F
6HR MIN TEMP:  62; 6HR MAX TEMP:  73; 6HR PCP: TRACE;

GULFPORT       PTSUNNY   76  63  64 S8        29.93F
6HR MIN TEMP:  59; 6HR MAX TEMP:  78;

BILOXI         NOT AVBL
PASCAGOULA     PTSUNNY   75  64  68 S6        29.93F
6HR MIN TEMP:  53; 6HR MAX TEMP:  79;

STENNIS ARPT*  CLOUDY    70  63  78 W8        29.95F

$$

COASTAL OBSERVATIONS
LAKE AND NEARSHORE STATIONS

STATION/POSITION TIME  TEMP    WIND        PRES    WAVE
                       AIR SEA DIR/SP/G            HT/PER
                 (UTC) (F)     (DEG/KT/KT) (MB)    (FT/S)
PASCAGOULA       1700   71     230/ 11/ 13 1013.5
WAVELAND YACHT   1700   73 72  290/ 10/ 12 1013.3
GRAND ISLE       1700   72 72  270/ 11/ 13 1015.5
SOUTHWEST PASS   1700   70 59  260/ 10/ 12 1015.7
NEW CANAL        1700   72 69  270/  3/  5 1015.0
SHELL BEACH      1700   72 67  270/ 13/ 15 1014.2

OFFSHORE STATIONS

STATION/POSITION TIME  TEMP    WIND        PRES    WAVE
                       AIR SEA DIR/SP/G            HT/PER
                 (UTC) (F)     (DEG/KT/KT) (MB)    (FT/S)
64 S DAUPHIN ISL 1742   67 72  260/  8/ 10 1015.0

$$




USA.gov is the U.S. government's official web portal to all federal, state and local government web resources and services.